{"data":{"norad_id":68641,"intl_designator":"2026-075F","name":"QIANFAN-114","alt_names":[],"object_type":"PAYLOAD","status":"ACTIVE","operator":null,"country":"PRC","launch_date":"2026-04-07","launch_site_code":"WSC","launch_vehicle":null,"mission":null,"orbit_class":"UNKNOWN","rcs_meters":null,"size_class":null,"mass_kg":null,"dimensions":null,"purposes":[],"wikipedia_slug":null,"has_3d_model":false,"image_url":null,"decayed_at":null,"tle_current":{"epoch":"2026-05-24T18:46:38.668800Z","epoch_age_seconds":93545,"freshness":"FRESH","line1":"1 68641U 26075F   26144.78239200  .00000044  00000+0  40212-4 0  9993","line2":"2 68641  88.9876 323.4155 0010627  75.2262 285.0073 13.62969308  6633","mean_motion":13.62969308,"eccentricity":0.0010627,"inclination_deg":88.9876,"raan_deg":323.4155,"arg_perigee_deg":75.2262,"mean_anomaly_deg":285.0073,"bstar":4.0212e-5,"rev_number":663,"period_min":105.65168207001,"perigee_km":1017.0532913591,"apogee_km":1032.7877498134,"semimajor_km":7403.0575205862,"source":"CELESTRAK","updated_at":"2026-05-25T13:38:07.990965Z"}}}